Wind_Speed
40 39 39 37 37 36 35 34 34 32 31 29 28 28 30 31 30 29 28 28 28 28 26 35 38 36 36 34 30 32 39 33 29 30 27 36 33 32 31 29 26 25 24 27 24
42 41 42 41 40 38 36 36 36 35 33 31 30 29 29 30 30 30 29 29 30 27 30 30 34 34 34 30 31 34 33 28 27 29 32 37 32 32 30 26 22 22 25 26 24
43 43 42 42 40 39 39 38 38 37 35 33 31 30 30 30 30 31 30 29 30 30 29 30 36 32 35 33 34 34 31 28 29 32 37 35 32 30 29 25 20 23 25 23 20
46 45 44 42 42 40 39 38 38 39 38 37 36 34 32 31 31 31 31 30 30 29 28 24 27 37 32 34 34 36 32 31 31 36 36 35 34 30 29 24 23 24 24 20 20
39 41 41 41 42 41 38 38 38 38 40 40 39 37 35 33 34 33 32 32 31 30 29 29 28 32 35 33 35 36 33 33 33 39 37 35 34 31 28 25 25 23 23 23 23
36 35 32 32 34 36 37 37 37 37 38 38 38 37 37 36 36 36 35 32 31 31 31 29 29 33 35 35 35 32 33 34 36 38 37 35 34 34 28 29 27 26 24 25 24
33 31 30 30 29 27 26 28 32 34 38 37 38 37 35 36 36 37 37 35 32 32 31 28 24 31 33 37 39 34 34 36 36 36 36 36 39 31 31 36 31 28 28 27 25
26 24 23 23 22 23 24 26 24 27 28 30 35 37 35 34 36 36 36 37 35 33 31 30 27 27 32 34 38 33 36 37 34 35 36 39 34 30 37 39 32 31 29 27 26
19 18 17 16 16 17 18 20 21 22 22 23 25 28 30 33 33 34 34 36 36 35 34 33 32 29 32 34 34 35 35 33 34 36 37 42 33 32 43 39 34 32 32 31 28
14 13 13 13 13 13 13 14 17 18 19 20 20 22 25 26 29 33 32 33 34 36 36 36 35 32 30 34 33 38 33 34 36 37 41 43 34 36 44 42 39 36 33 30 28
12 12 11 10 11 11 11 12 12 12 15 18 18 16 18 22 25 28 33 32 32 34 35 37 38 30 30 32 41 34 42 37 36 39 42 42 36 40 48 46 42 37 33 31 29
14 13 11 10 10 11 13 13 13 12 14 12 17 15 15 16 20 22 25 29 30 31 35 36 36 32 34 35 36 40 38 34 33 36 41 41 39 42 50 45 41 37 35 32 32
17 16 14 14 14 13 12 11 11 12 9 16 14 14 16 17 18 22 24 26 27 28 32 36 35 35 36 35 38 36 33 33 33 37 39 40 41 42 47 45 43 40 35 34 32
22 22 22 21 20 20 18 18 16 13 13 14 15 14 13 16 16 19 21 24 28 27 31 35 35 35 37 36 35 40 38 32 37 37 41 39 43 42 46 46 43 40 36 33 32
26 27 26 27 26 25 26 25 24 23 22 17 19 16 15 14 17 20 20 19 22 30 30 33 34 36 38 36 39 38 40 36 41 39 41 43 45 41 45 46 42 37 35 34 35
32 32 32 31 32 32 32 31 31 30 30 27 24 22 21 20 18 17 23 24 26 26 27 27 31 36 37 37 37 41 43 43 40 46 48 43 47 44 44 40 38 38 38 37 36
37 37 38 38 37 37 37 38 38 36 36 35 32 30 27 26 24 23 20 22 27 28 28 29 25 31 38 39 39 37 41 46 49 48 57 45 48 51 41 38 38 39 39 38 36
43 43 44 44 43 43 43 44 44 44 44 43 41 39 37 32 31 28 27 24 24 29 31 31 28 26 30 38 39 40 34 40 46 55 54 54 54 53 42 40 37 37 38 38 36
49 50 50 51 50 50 51 52 52 52 51 50 49 47 45 43 38 37 33 31 29 29 32 35 34 32 31 26 39 41 40 34 45 47 53 57 51 56 45 41 41 37 37 37 37
54 55 56 56 56 56 56 56 57 56 56 56 55 53 51 49 47 46 43 39 35 33 33 34 38 36 34 36 33 37 44 44 40 47 47 45 45 45 47 41 39 38 36 36 35
55 56 54 54 53 55 56 55 55 54 53 54 54 54 54 52 49 49 49 47 43 41 39 39 40 37 38 37 37 37 38 46 47 45 47 47 44 38 37 39 36 36 40 43 42
48 48 49 47 47 46 47 48 48 49 51 52 53 54 54 55 54 52 51 50 48 46 46 45 45 43 42 40 41 40 42 37 46 50 50 49 46 44 37 35 38 40 41 41 40
48 49 50 50 49 48 49 48 48 49 48 50 52 52 53 55 57 56 54 53 51 49 50 50 51 48 44 44 41 44 42 41 40 42 53 54 48 39 42 41 36 35 42 43 41
52 52 51 51 49 48 49 50 50 52 52 53 54 55 55 56 57 56 55 55 55 54 55 57 54 53 49 45 46 42 40 37 40 46 44 52 50 44 36 36 33 33 33 38 45
52 53 51 51 52 53 53 54 55 56 58 59 59 60 61 60 61 61 61 61 60 60 60 61 59 60 56 50 50 51 47 44 45 46 44 40 50 47 39 36 37 38 37 41 43
55 55 54 54 54 56 58 58 61 63 67 67 67 68 68 66 67 66 65 65 62 62 63 63 62 63 62 57 55 56 51 49 48 48 46 43 46 32 30 36 39 38 36 40 45
55 55 58 58 59 62 64 66 68 70 69 68 68 68 69 62 63 69 71 69 67 66 65 65 65 67 66 62 59 63 53 55 51 51 50 52 39 36 32 34 37 41 39 39 43
Wind_Direction
284 282 280 276 273 273 272 270 268 267 266 264 263 262 263 264 263 262 263 266 266 262 265 259 248 248 251 254 248 243 240 245 248 242 239 241 238 239 246 248 253 252 228 224 222
284 282 279 277 274 271 268 270 270 268 266 265 263 262 262 263 263 262 263 262 262 265 270 270 253 246 249 251 245 248 249 248 244 236 235 241 235 239 246 247 250 234 219 222 222
284 281 278 275 271 267 266 264 264 265 264 263 262 262 261 261 262 262 261 261 262 264 268 271 260 237 244 243 247 246 247 246 238 234 236 237 234 237 240 239 232 214 213 214 213
282 278 277 275 273 271 267 263 261 261 261 262 262 261 260 261 262 260 261 262 261 263 263 274 267 254 239 239 247 243 242 242 236 235 236 233 233 236 233 232 224 216 210 194 193
294 288 281 275 272 269 267 266 263 261 261 260 260 259 258 256 258 260 259 258 259 260 264 266 272 257 246 233 243 241 243 242 236 239 236 232 231 230 226 221 223 216 208 198 195
301 297 295 288 279 274 270 267 266 265 262 261 261 260 259 258 256 256 257 258 258 258 261 263 266 256 248 237 242 244 243 242 237 238 236 233 230 228 224 220 219 216 209 201 197
307 303 298 289 284 282 278 270 264 264 262 261 262 261 260 258 256 255 255 255 254 255 255 257 261 254 251 244 238 241 244 241 237 241 237 235 228 225 217 222 216 217 216 212 208
317 316 305 295 292 287 281 279 277 271 272 269 262 259 257 257 257 255 254 254 254 253 253 253 253 253 248 255 243 240 241 241 240 238 236 236 223 226 220 224 215 218 219 220 217
323 324 327 323 309 298 293 288 281 278 277 274 271 265 261 255 253 253 253 253 253 253 251 250 251 252 251 250 253 237 240 245 240 240 236 236 226 224 221 222 218 218 222 222 226
333 338 337 337 330 327 322 311 297 292 287 282 277 277 269 259 254 251 251 251 251 251 251 249 250 252 254 252 254 243 237 237 237 237 236 234 227 222 224 221 220 218 224 226 227
330 336 341 344 348 349 351 346 343 321 294 280 277 284 273 261 256 253 251 250 249 249 249 248 249 250 256 252 248 253 236 229 234 238 238 238 232 224 224 220 223 222 226 229 227
307 311 317 329 337 345 347 352 356 359 317 304 280 276 279 270 257 260 254 252 250 249 249 248 251 246 246 250 254 252 239 232 243 243 240 238 233 224 226 221 223 225 227 228 230
297 297 298 304 308 317 324 331 337 346 335 327 322 292 271 273 264 261 259 252 249 250 248 247 246 244 243 247 251 245 242 238 244 242 242 238 233 225 226 223 222 226 228 231 232
289 292 294 295 298 300 301 305 310 312 318 326 330 325 296 274 271 263 260 257 247 249 249 247 244 241 244 246 253 250 240 239 237 242 241 240 234 223 223 224 225 228 230 232 235
284 287 289 291 292 292 298 300 302 305 308 304 318 317 319 305 279 267 263 256 258 249 248 250 244 241 239 241 251 246 235 237 237 240 240 234 241 215 224 226 225 229 234 236 237
282 284 285 287 290 293 294 296 296 298 299 301 304 307 308 308 307 290 270 265 262 258 253 254 248 242 242 243 247 249 240 232 238 233 236 231 239 218 222 228 230 232 232 235 238
283 285 286 287 288 289 291 293 293 293 293 294 297 299 296 295 296 299 293 275 265 260 259 256 256 246 241 244 245 241 250 246 239 235 237 236 235 234 222 225 230 235 238 239 241
283 284 285 285 286 286 286 287 287 288 289 289 292 292 292 290 286 290 290 291 278 268 264 260 254 255 249 244 248 249 243 244 250 241 241 240 236 237 225 229 230 235 238 241 244
284 285 285 285 285 284 285 285 284 284 284 285 286 286 286 286 285 283 282 283 283 276 268 264 256 253 251 252 244 246 248 244 250 251 249 250 247 242 232 229 235 236 242 242 243
283 284 285 285 285 285 283 282 281 282 281 280 280 280 279 279 279 280 279 278 276 275 273 268 265 256 252 251 253 248 245 251 247 249 252 253 254 253 250 240 236 235 236 239 238
283 283 283 283 282 281 280 279 278 277 275 274 273 272 271 270 268 270 273 273 273 272 270 269 269 263 255 250 252 252 247 244 247 250 253 255 252 250 251 247 232 231 234 237 239
284 285 285 285 285 284 285 286 284 282 279 277 273 271 269 268 265 262 263 263 267 266 267 266 266 267 263 256 252 251 252 254 248 244 246 251 243 250 249 245 238 229 228 233 236
287 287 288 288 289 288 288 289 287 285 280 277 274 270 268 267 266 263 262 262 260 261 263 262 264 264 263 261 259 254 254 255 257 248 241 246 243 237 245 249 247 237 233 226 232
289 290 290 290 290 291 289 288 287 284 281 278 275 272 269 267 265 263 262 261 261 260 260 260 258 261 260 260 260 257 255 252 252 249 240 241 244 249 248 245 244 241 239 229 230
293 293 292 294 293 292 291 289 287 284 282 279 276 274 271 268 266 265 262 259 258 259 259 257 256 257 255 254 254 255 251 249 247 249 250 231 242 244 243 237 232 234 234 233 233
296 296 293 293 291 292 290 290 288 284 282 280 278 274 272 271 266 262 260 261 258 257 255 254 255 256 256 255 254 251 247 251 248 249 242 238 233 253 244 239 235 235 237 237 232
298 297 296 295 295 294 295 292 290 287 282 279 276 273 272 269 266 264 262 259 257 255 253 251 252 251 252 251 248 247 248 251 250 247 247 246 238 250 252 238 235 234 234 237 229
Height
5719 5718 5716 5715 5714 5714 5713 5712 5712 5712 5712 5712 5712 5711 5712 5712 5712 5712 5712 5713 5712 5712 5712 5712 5712 5713 5714 5717 5719 5720 5719 5728 5733 5735 5739 5735 5739 5741 5741 5745 5746 5747 5748 5747 5749
5710 5708 5707 5706 5706 5705 5704 5704 5705 5704 5704 5704 5704 5704 5704 5704 5705 5705 5706 5706 5706 5706 5706 5705 5705 5706 5708 5711 5711 5712 5716 5724 5727 5729 5729 5728 5734 5736 5737 5740 5742 5742 5742 5745 5746
5700 5698 5697 5695 5695 5695 5695 5695 5696 5696 5695 5695 5696 5696 5697 5697 5698 5698 5699 5699 5699 5700 5700 5699 5698 5699 5701 5703 5705 5708 5713 5716 5719 5721 5720 5724 5728 5731 5733 5735 5737 5736 5736 5739 5742
5690 5688 5686 5686 5685 5685 5685 5685 5686 5686 5686 5687 5687 5688 5689 5689 5691 5690 5691 5691 5692 5693 5693 5692 5693 5693 5694 5696 5698 5700 5706 5709 5712 5712 5714 5718 5722 5726 5728 5732 5733 5732 5733 5737 5739
5680 5677 5675 5674 5673 5673 5674 5675 5676 5676 5676 5677 5678 5679 5680 5681 5682 5682 5683 5684 5685 5685 5686 5686 5687 5686 5687 5689 5690 5694 5699 5702 5704 5703 5709 5713 5717 5719 5724 5725 5729 5730 5731 5733 5736
5673 5670 5668 5665 5664 5664 5664 5665 5666 5666 5666 5668 5669 5670 5672 5673 5673 5674 5675 5677 5678 5678 5679 5679 5680 5680 5681 5682 5683 5689 5691 5694 5696 5697 5702 5707 5711 5712 5720 5720 5722 5725 5728 5729 5733
5666 5663 5660 5658 5657 5656 5654 5655 5656 5656 5656 5658 5659 5660 5662 5664 5665 5666 5667 5669 5670 5671 5672 5673 5673 5673 5675 5676 5677 5682 5684 5686 5689 5693 5696 5699 5701 5710 5713 5711 5716 5721 5723 5726 5729
5662 5659 5655 5652 5651 5649 5648 5648 5648 5648 5648 5649 5649 5651 5652 5654 5656 5658 5659 5661 5662 5663 5665 5666 5667 5668 5669 5669 5672 5674 5676 5678 5685 5687 5690 5692 5700 5705 5705 5706 5713 5715 5719 5723 5726
5660 5656 5653 5650 5647 5645 5643 5642 5642 5642 5642 5641 5642 5642 5643 5645 5647 5649 5651 5653 5654 5656 5657 5659 5661 5662 5663 5663 5665 5667 5670 5674 5677 5679 5682 5683 5694 5697 5695 5702 5707 5710 5713 5717 5719
5658 5655 5652 5648 5645 5643 5641 5639 5638 5638 5636 5636 5636 5637 5637 5638 5638 5640 5641 5644 5646 5647 5650 5652 5653 5655 5657 5657 5659 5660 5661 5665 5668 5671 5672 5674 5685 5688 5688 5694 5699 5702 5708 5712 5715
5656 5654 5651 5648 5645 5642 5641 5638 5638 5636 5632 5631 5631 5631 5630 5630 5631 5632 5633 5635 5637 5639 5641 5642 5644 5649 5651 5650 5648 5650 5653 5656 5660 5662 5664 5668 5676 5680 5679 5685 5691 5697 5703 5707 5710
5654 5651 5649 5646 5644 5642 5639 5637 5635 5634 5628 5628 5626 5626 5625 5624 5626 5625 5626 5627 5629 5630 5632 5635 5638 5641 5641 5642 5642 5644 5647 5652 5654 5655 5656 5659 5666 5672 5672 5680 5686 5691 5695 5700 5703
5650 5647 5646 5643 5642 5640 5638 5636 5634 5632 5629 5626 5623 5621 5621 5621 5620 5619 5619 5620 5621 5622 5623 5625 5629 5632 5633 5635 5636 5639 5640 5645 5647 5647 5648 5652 5657 5664 5668 5674 5679 5684 5688 5692 5696
5646 5644 5641 5640 5639 5636 5634 5632 5630 5629 5628 5626 5621 5619 5617 5616 5615 5614 5612 5614 5614 5615 5615 5617 5620 5624 5626 5628 5629 5631 5635 5636 5637 5639 5641 5646 5648 5656 5660 5666 5672 5677 5681 5686 5689
5640 5638 5636 5633 5633 5631 5630 5627 5626 5624 5624 5623 5620 5617 5615 5614 5613 5611 5609 5608 5608 5607 5609 5611 5613 5614 5616 5620 5620 5623 5625 5627 5629 5631 5633 5639 5638 5652 5653 5658 5666 5672 5675 5678 5681
5633 5632 5630 5628 5626 5625 5623 5621 5620 5620 5617 5617 5615 5614 5611 5609 5608 5606 5604 5603 5602 5602 5602 5602 5603 5606 5609 5610 5612 5614 5617 5618 5620 5622 5621 5631 5631 5641 5648 5655 5660 5664 5666 5670 5673
5624 5623 5622 5620 5619 5617 5615 5614 5613 5611 5611 5609 5608 5608 5607 5604 5602 5601 5599 5598 5596 5595 5595 5595 5596 5597 5600 5602 5604 5607 5611 5611 5613 5614 5613 5621 5624 5627 5643 5648 5653 5655 5659 5662 5666
5615 5613 5611 5609 5608 5607 5605 5604 5602 5601 5600 5599 5599 5598 5598 5598 5597 5595 5594 5593 5590 5588 5587 5587 5592 5590 5592 5594 5598 5598 5602 5604 5602 5605 5607 5610 5615 5616 5634 5639 5645 5648 5651 5655 5658
5603 5601 5600 5598 5597 5595 5594 5591 5589 5589 5589 5588 5587 5587 5588 5587 5588 5586 5586 5585 5583 5580 5579 5577 5580 5582 5584 5585 5587 5590 5592 5597 5595 5597 5598 5602 5608 5612 5625 5632 5636 5640 5643 5647 5650
5590 5588 5586 5584 5582 5580 5578 5575 5574 5574 5573 5573 5573 5572 5574 5575 5575 5575 5576 5575 5575 5573 5569 5570 5567 5572 5574 5576 5579 5580 5583 5585 5588 5587 5588 5591 5597 5604 5614 5624 5628 5632 5635 5637 5641
5576 5574 5570 5569 5566 5563 5561 5559 5558 5558 5557 5556 5556 5555 5557 5558 5560 5560 5561 5562 5563 5562 5560 5559 5557 5561 5564 5567 5569 5571 5572 5575 5578 5579 5581 5581 5586 5596 5604 5611 5619 5623 5626 5628 5631
5562 5560 5557 5554 5552 5549 5546 5545 5544 5542 5541 5539 5539 5539 5540 5540 5541 5544 5546 5544 5548 5549 5549 5546 5546 5548 5552 5554 5557 5560 5563 5566 5566 5572 5572 5572 5575 5585 5591 5598 5605 5611 5615 5618 5620
5549 5546 5543 5540 5536 5534 5531 5530 5527 5527 5526 5524 5522 5522 5523 5523 5523 5526 5529 5530 5533 5533 5533 5534 5534 5535 5540 5545 5547 5549 5554 5557 5558 5558 5562 5563 5567 5579 5583 5587 5593 5598 5602 5607 5610
5535 5532 5529 5525 5524 5520 5517 5515 5512 5509 5508 5506 5506 5505 5505 5505 5505 5508 5512 5514 5515 5517 5516 5515 5521 5522 5527 5531 5532 5537 5541 5544 5545 5545 5554 5554 5562 5568 5576 5581 5584 5588 5592 5596 5600
5520 5517 5514 5511 5507 5503 5500 5498 5495 5492 5488 5486 5487 5484 5483 5486 5486 5487 5490 5494 5498 5499 5498 5498 5504 5504 5510 5516 5517 5522 5527 5530 5532 5541 5539 5554 5546 5555 5565 5567 5571 5575 5580 5584 5589
5503 5499 5496 5495 5491 5488 5482 5482 5476 5472 5466 5465 5463 5459 5459 5463 5459 5463 5467 5472 5477 5480 5479 5479 5486 5489 5494 5501 5504 5505 5510 5516 5524 5528 5533 5535 5540 5552 5552 5554 5561 5566 5570 5573 5577
5487 5482 5476 5477 5472 5468 5464 5457 5453 5445 5445 5438 5437 5435 5437 5435 5431 5439 5443 5449 5454 5458 5458 5462 5469 5470 5475 5481 5484 5484 5502 5506 5513 5518 5524 5523 5538 5540 5542 5546 5549 5553 5558 5561 5566